Location: Unspecified
(0.0000°N, 0.0000°E)
Time: 04:50:17
(UTC+00:00)

MOZHAYETS 4 - Pass Details

Date: 09 August 2024
Orbit: 650 x 668 km, 98.3° (Epoch: 15 September)

Event Time Altitude Azimuth Distance (km) Brightness Sun altitude
Exits shadow 03:47:04 11° 7° (N) 2,006 10.4 -33.1°
Drops below altitude 10° 03:47:14 10° 6° (N) 2,069 10.5 -33.1°
Sets 03:49:34 0° 359° (N) 2,992 11.3 -32.6°
